Weather History for Clarksburg, WV

Change the Weather History Date:

Monday, November 5, 2012

  Actual Average Record
Temperature  
Mean Temperature 36 °F -  
Max Temperature 41 °F 55 °F 80 °F (1977)
Min Temperature 30 °F 35 °F 12 °F (1991)
Degree Days  
Heating Degree Days 30    
Moisture  
Dew Point 28 °F    
Average Humidity 70    
Maximum Humidity 85    
Minimum Humidity 55    
Precipitation  
Precipitation 0.00 in - - ()
Sea Level Pressure  
Sea Level Pressure 30.14 in    
Wind  
Wind Speed 1 mph (North)    
Max Wind Speed 6 mph    
Max Gust Speed -    
Visibility 10 miles    
Events      
Averages and records for this station are not official NWS values.
T = Trace of Precipitation, MM = Missing Value Source: NWS Daily Summary

Daily Weather History Graph

Daily Weather History Graph

Search for Another Location

Airport:

Trip Planner

Search our weather history database for the weather conditions in past years. The results will help you decide how hot, cold, wet, or windy it might be!

Date:

Astronomy

Nov. 05, 2012 Rise Set
Actual Time 6:53 AM EST 5:14 PM EST
Civil Twilight 6:25 AM EST 5:42 PM EST
Nautical Twilight 5:53 AM EST 6:14 PM EST
Astronomical Twilight 5:22 AM EST 6:46 PM EST
Moon 10:50 PM EST (11/5) 12:12 PM EST (11/5)
Length of Visible Light 11h 17m
Length of Day
10h 21m
Waning Gibbous, 63% of the Moon is Illuminated
Nov 5
Waning Gibbous
Nov 6
Last Quarter
Nov 13
New
Nov 20
First Quarter
Nov 28
Full

Hourly Weather History & Observations

Time (EST) Temp. Windchill Dew Point Humidity Pressure Visibility Wind Dir Wind Speed Gust Speed Precip Events Conditions
12:53 AM 34.0 °F - 30.0 °F 85% 30.11 in 10.0 mi Calm Calm - N/A   Overcast
1:53 AM 35.1 °F - 28.9 °F 78% 30.11 in 10.0 mi Calm Calm - N/A   Overcast
2:53 AM 35.1 °F - 28.9 °F 78% 30.11 in 10.0 mi Calm Calm - N/A   Overcast
3:53 AM 35.1 °F - 28.9 °F 78% 30.10 in 10.0 mi Calm Calm - N/A   Overcast
5:53 AM 35.1 °F - 30.0 °F 82% 30.13 in 10.0 mi Calm Calm - N/A   Overcast
7:53 AM 36.0 °F - 30.0 °F 79% 30.16 in 10.0 mi Calm Calm - N/A   Overcast
8:53 AM 37.0 °F 34.5 °F 28.9 °F 73% 30.16 in 10.0 mi Variable 3.5 mph - N/A   Overcast
9:53 AM 39.0 °F 36.8 °F 28.0 °F 65% 30.16 in 10.0 mi West 3.5 mph - N/A   Overcast
10:53 AM 39.9 °F - 28.9 °F 65% 30.16 in 10.0 mi Calm Calm - N/A   Overcast
11:14 AM 39.2 °F 37.0 °F 28.4 °F 65% 30.15 in 10.0 mi Variable 3.5 mph - N/A   Overcast
11:30 AM 39.2 °F 35.0 °F 26.6 °F 61% 30.15 in 10.0 mi NNW 5.8 mph - N/A   Overcast
11:53 AM 39.9 °F 35.8 °F 27.0 °F 60% 30.16 in 10.0 mi NW 5.8 mph - N/A   Overcast
12:53 PM 39.9 °F 37.8 °F 27.0 °F 60% 30.14 in 10.0 mi Variable 3.5 mph - N/A   Overcast
1:53 PM 41.0 °F - 27.0 °F 57% 30.13 in 10.0 mi Calm Calm - N/A   Overcast
2:53 PM 41.0 °F - 27.0 °F 57% 30.12 in 10.0 mi Calm Calm - N/A   Overcast
3:53 PM 41.0 °F - 26.1 °F 55% 30.12 in 10.0 mi Calm Calm - N/A   Overcast
4:53 PM 39.0 °F 36.8 °F 27.0 °F 62% 30.13 in 10.0 mi NE 3.5 mph - N/A   Overcast
5:53 PM 37.0 °F - 28.0 °F 70% 30.14 in 10.0 mi Calm Calm - N/A   Overcast
8:53 PM 32.0 °F 27.5 °F 26.1 °F 79% 30.16 in 10.0 mi ENE 4.6 mph - N/A   Clear
9:53 PM 33.1 °F - 25.0 °F 72% 30.16 in 10.0 mi Calm Calm - N/A   Clear
10:53 PM 30.0 °F - 25.0 °F 82% 30.16 in 10.0 mi Calm Calm - N/A   Clear
11:53 PM 30.0 °F - 25.0 °F 82% 30.15 in 10.0 mi Calm Calm - N/A   Clear